Location: Boiro
(42.6475°N, 8.8834°W)
Time: 05:40:05
(UTC+01:00)

Transit 4A - Pass Details

Date: 03 December 2021
Orbit: 864 x 980 km, 66.8° (Epoch: 17 January)

Event Time Altitude Azimuth Distance (km) Brightness Sun altitude
Rises 19:10:13 0° 154° (SSE) 3,442 10.8 -12.2°
Reaches altitude 10° 19:14:08 10° 127° (SE) 2,526 9.9 -12.8°
Enters shadow 19:16:30 13° 103° (ESE) 2,331 9.5 -13.2°
